COSMOS 2251 DEB, 40799

Orbit data source: Space-Track

COSMOS 2251 DEB, 40799 is space debris in LEO originally from a launch on Wed, 16 Jun 1993 UTC launched from the Plesetsk Missile And Space Complex (PKMTR). The debris from Iridium 33, an American commercial communications satellite, has been tracked extensively since its accidental collision with the defunct Russian satellite Cosmos 2251 in 2009. This event, occurring at high speed in low Earth orbit (LEO), generated thousands of pieces of space debris, significantly increasing the risk of further collisions. The Iridium 33 debris cloud has impacted space traffic management and orbital debris mitigation strategies, making it a subject of ongoing study in space situational awareness.

Loading next visibility...
Identifier
40799, 1993-036BWC
Orbit
LEO
Country
Flag of CISCIS
Related business
Manufacturer
Unknown
Mission
Spacecraft
Bus & Motor
Unknown
Mass
Unknown
Launch date (UTC)
1993-06-16 (32 years ago)
Launch vehicle
Unknown
Launch site
Plesetsk Missile And Space Complex (PKMTR)
Object type
Payload
Rocket body
Debris
Shape & HBR
Unknown shape, 0.1 m
Radar Cross Section
Small (<0.1 m²)

Expand to show TLE details & history
Last TLE update: 4 days ago

TLE from 4 days ago
0 COSMOS 2251 DEB
1 40799U 93036BWC 25296.47838057  .00007736  00000-0  60194-3 0  9992
2 40799  73.9271 200.6388 0117987  95.2335 266.2326 14.95984214492253
Epoch: 2025-10-23T11:28Z
TLE epoch observation values (Epoch: 2025-10-23T11:28:52.081Z)
Latitude
0.00002°
Longitude
-3.71526°
Altitude
588.355 km
Speed
7.563 km/s
True Right ascension
13h 22m 33s
True Declination
0° 00' 00"
Sunlit
Object was in daylight at epoch
Visualization orbit readout
Latitude
Unknown
Longitude
Unknown
Altitude
Unknown
Speed
Unknown
Apparent Right ascension
Unknown
Apparent Declination
Unknown
Sunlit
N/A
Visualization observer readout
Local Sidereal Time
08:25:11
Azimuth
Unknown
Elevation
Unknown
Doppler factor
Unknown
Orbital elements
Apogee altitude
658.947 km
Perigee altitude
494.826 km
Semi-major axis
6,955.024 km
Eccentricity
0.0118
Inclination
73.9271°
RAAN
200.6388°
Arg. of periapsis
95.2335°
True anomaly
264.88492°
Mean anomaly
266.2326°
Eccentric anomaly
265.55861°
Mean motion
3.74193 °/min
Orbital period
96.21 mins
BSTAR
0.00060194
Loading maneuver chart data...
Computing Atmospheric mass density...

Documentation

Showing up to 5 results
|